TimeEST,TemperatureF,Dew PointF,Humidity,Sea Level PressureIn,VisibilityMPH,Wind Direction,Wind SpeedMPH,Gust SpeedMPH,PrecipitationIn,Events,Conditions,WindDirDegrees,DateUTC
12:51 AM,26.1,21.0,81,30.00,5.0,NNW,11.5,-,0.00,Snow,Light Snow,340,2013-03-02 05:51:00
1:39 AM,24.8,19.4,80,29.96,7.0,NNW,8.1,-,0.00,Snow,Light Snow,340,2013-03-02 06:39:00
1:51 AM,25.0,19.9,81,30.01,5.0,North,8.1,-,0.00,Snow,Light Snow,350,2013-03-02 06:51:00
2:51 AM,25.0,19.9,81,29.99,3.0,North,9.2,-,0.00,Snow,Light Snow,350,2013-03-02 07:51:00
3:51 AM,25.0,19.0,78,29.99,3.0,North,6.9,-,0.01,Snow,Light Snow,360,2013-03-02 08:51:00
4:51 AM,24.1,18.0,77,29.98,3.0,North,6.9,-,0.00,Snow,Light Snow,360,2013-03-02 09:51:00
4:58 AM,24.8,19.4,80,29.94,3.0,North,5.8,-,0.00,Snow,Light Snow,360,2013-03-02 09:58:00
5:14 AM,24.8,19.4,80,29.94,2.5,North,4.6,-,0.00,Snow,Light Snow,360,2013-03-02 10:14:00
5:51 AM,24.1,19.0,81,29.99,3.0,North,4.6,-,0.00,Snow,Light Snow,350,2013-03-02 10:51:00
6:51 AM,24.1,19.9,84,29.99,3.0,NNW,5.8,-,0.00,Snow,Light Snow,330,2013-03-02 11:51:00
7:51 AM,24.1,19.9,84,30.00,2.0,NW,4.6,-,0.00,Snow,Light Snow,320,2013-03-02 12:51:00
8:51 AM,25.0,19.9,81,30.00,2.0,NNW,11.5,-,0.00,Snow,Light Snow,330,2013-03-02 13:51:00
9:15 AM,24.8,19.4,80,29.95,7.0,North,9.2,-,0.00,Snow,Light Snow,360,2013-03-02 14:15:00
9:51 AM,26.1,19.0,75,29.99,6.0,NNW,10.4,-,0.00,Snow,Light Snow,330,2013-03-02 14:51:00
10:51 AM,27.0,19.9,75,29.99,5.0,NNW,11.5,-,0.00,Snow,Light Snow,340,2013-03-02 15:51:00
11:02 AM,26.6,19.4,74,29.95,2.5,NNW,11.5,-,0.00,Snow,Light Snow,340,2013-03-02 16:02:00
11:51 AM,28.0,21.0,75,29.99,2.5,NNW,10.4,18.4,0.00,Snow,Light Snow,330,2013-03-02 16:51:00
12:04 PM,26.6,21.2,80,29.94,1.5,North,9.2,-,0.00,Snow,Light Snow,360,2013-03-02 17:04:00
12:51 PM,28.9,21.9,75,29.98,1.5,NNW,15.0,-,0.00,Snow,Light Snow,330,2013-03-02 17:51:00
1:18 PM,26.6,19.4,74,29.93,2.0,NNW,12.7,-,0.00,,Overcast,330,2013-03-02 18:18:00
1:51 PM,27.0,19.0,72,29.98,2.0,North,11.5,-,0.00,Snow,Light Snow,350,2013-03-02 18:51:00
2:51 PM,27.0,19.9,75,29.97,2.0,NNW,12.7,-,0.00,Snow,Light Snow,340,2013-03-02 19:51:00
3:16 PM,26.6,19.4,74,29.93,4.0,NNW,11.5,-,0.00,Snow,Light Snow,340,2013-03-02 20:16:00
3:51 PM,27.0,21.0,78,29.98,4.0,NNW,10.4,-,0.00,Snow,Light Snow,340,2013-03-02 20:51:00
4:51 PM,28.0,19.9,72,29.98,6.0,North,6.9,-,0.00,Snow,Light Snow,350,2013-03-02 21:51:00
5:51 PM,27.0,21.0,78,29.99,3.0,NNW,12.7,-,0.00,Snow,Light Snow,330,2013-03-02 22:51:00
6:51 PM,26.1,21.0,81,30.00,5.0,NNW,10.4,-,0.00,Snow,Light Snow,330,2013-03-02 23:51:00
7:51 PM,26.1,21.0,81,30.00,3.0,NNW,10.4,-,0.01,Snow,Light Snow,330,2013-03-03 00:51:00
8:51 PM,26.1,21.0,81,30.00,3.0,NNW,12.7,-,0.00,Snow,Light Snow,330,2013-03-03 01:51:00
9:51 PM,26.1,21.0,81,30.01,4.0,North,9.2,-,0.00,Snow,Light Snow,350,2013-03-03 02:51:00
10:51 PM,26.1,21.9,84,30.00,4.0,NW,6.9,-,0.01,Snow,Light Snow,320,2013-03-03 03:51:00
11:51 PM,25.0,21.0,85,30.00,3.0,NW,9.2,-,0.00,Snow,Light Snow,310,2013-03-03 04:51:00